CW5920 Weather Reports


Display with metric or nautical units.
time (UTC)temp
F
wind
direction
speed
MPH
gust
MPH
rain 1hr
in
rain 24hr
in
rain mn
in
humidity
%
barometer
mb
20220525043517 60 0.0 0.0 0.04 0.64 0.64 95 1009.1
20220525042517 60 0.0 0.0 0.05 0.63 0.63 95 1009.6
20220525041517 60 180 2.0 7.0 0.05 0.62 0.62 95 1010.3
20220525040517 60 0.0 1.0 0.09 0.62 0.62 95 1009.1
20220525035522 60 0 2.0 5.0 0.11 0.61 0.61 95 1008.2
20220525034522 60 338 5.0 9.0 0.13 0.60 0.60 95 1007.6
20220525033517 60 45 5.0 11.0 0.16 0.60 0.60 94 1007.9
20220525032522 60 45 6.0 11.0 0.15 0.58 0.58 94 1007.5
20220525031517 60 45 5.0 10.0 0.15 0.57 0.57 94 1007.3
20220525030522 60 45 5.0 10.0 0.11 0.53 0.53 94 1007.5
20220525025517 60 68 6.0 10.0 0.09 0.50 0.50 93 1008.0
20220525024522 61 68 5.0 8.0 0.08 0.48 0.47 93 1008.9
20220525023517 61 45 5.0 7.0 0.10 0.46 0.44 93 1008.6
20220525022517 61 23 3.0 6.0 0.28 0.47 0.43 93 1008.3
20220525021517 61 23 4.0 8.0 0.36 0.48 0.42 92 1008.2
20220525020517 62 338 5.0 10.0 0.36 0.50 0.42 92 1007.9
20220525015518 62 0 4.0 9.0 0.35 0.52 0.41 92 1008.2
20220525014517 63 315 3.0 6.0 0.34 0.52 0.39 91 1008.5
20220525013517 63 293 6.0 15.0 0.29 0.49 0.34 90 1008.7
20220525012517 64 248 5.0 13.0 0.10 0.32 0.15 89 1009.7
20220525011517 65 248 5.0 15.0 0.01 0.23 0.06 90 1009.3
20220525010517 65 315 2.0 5.0 0.01 0.23 0.06 89 1006.8
20220525005517 65 315 3.0 7.0 0.01 0.23 0.06 89 1006.5
20220525004517 66 315 6.0 11.0 0.00 0.22 0.05 88 1006.2
20220525003517 66 315 6.0 11.0 0.00 0.22 0.05 88 1005.9
20220525002517 66 315 8.0 14.0 0.00 0.22 0.05 87 1005.5
20220525001517 67 315 11.0 15.0 0.00 0.22 0.05 85 1005.6
20220525000517 68 293 10.0 17.0 0.00 0.22 0.05 83 1005.4
20220524235517 70 338 7.0 14.0 0.00 0.22 0.05 80 1005.1
20220524234517 72 338 10.0 22.0 0.00 0.22 0.05 78 1004.6
20220524233517 73 315 9.0 14.0 0.00 0.22 0.05 76 1005.1
20220524232517 74 338 10.0 17.0 0.00 0.22 0.05 75 1004.7
20220524231517 74 338 7.0 11.0 0.00 0.22 0.05 75 1004.9
20220524230517 74 0 7.0 12.0 0.00 0.22 0.05 75 1004.8
20220524225517 74 0 6.0 9.0 0.00 0.22 0.05 76 1004.7
20220524224517 74 0 7.0 12.0 0.00 0.22 0.05 76 1004.4
20220524223517 74 0 7.0 14.0 0.00 0.22 0.05 76 1004.3
20220524222517 74 0 6.0 12.0 0.00 0.22 0.05 77 1004.3
20220524221517 73 45 8.0 13.0 0.00 0.22 0.05 76 1004.4
20220524220522 73 45 9.0 14.0 0.00 0.22 0.05 78 1004.4
20220524215522 72 68 7.0 13.0 0.00 0.22 0.05 78 1004.8
20220524214517 71 23 5.0 10.0 0.00 0.22 0.05 79 1005.0
20220524213517 71 45 6.0 11.0 0.00 0.22 0.05 79 1005.4
20220524212517 72 23 6.0 11.0 0.00 0.22 0.05 76 1005.9
20220524211517 72 23 5.0 9.0 0.00 0.22 0.05 77 1006.0
20220524210517 73 0 7.0 12.0 0.00 0.22 0.05 76 1006.1
20220524205517 73 0 7.0 13.0 0.00 0.22 0.05 75 1006.1
20220524204517 73 338 10.0 14.0 0.00 0.22 0.05 77 1006.2
20220524203517 72 0 9.0 14.0 0.00 0.22 0.05 78 1006.4
20220524202517 72 0 8.0 14.0 0.00 0.22 0.05 80 1006.6
20220524201517 71 0 9.0 12.0 0.00 0.22 0.05 81 1006.5
20220524200517 71 0 6.0 12.0 0.00 0.22 0.05 82 1006.9
20220524195517 71 0 8.0 13.0 0.00 0.22 0.05 82 1007.1
20220524194517 71 0 7.0 15.0 0.00 0.22 0.05 83 1007.2
20220524193517 70 0 8.0 13.0 0.00 0.22 0.05 84 1007.4
20220524192517 70 0 7.0 12.0 0.00 0.22 0.05 84 1007.6
20220524191517 70 0 6.0 11.0 0.00 0.22 0.05 84 1007.7
20220524190517 70 45 7.0 13.0 0.00 0.22 0.05 83 1007.8
20220524185517 70 0 8.0 14.0 0.00 0.22 0.05 85 1007.8
20220524184517 70 0 7.0 13.0 0.00 0.22 0.05 85 1008.0
20220524183517 69 0 9.0 13.0 0.00 0.22 0.05 87 1007.9
20220524182517 68 0 9.0 13.0 0.00 0.22 0.05 88 1008.0
20220524181517 68 0 8.0 13.0 0.00 0.22 0.05 88 1008.1
20220524180522 67 0 9.0 14.0 0.00 0.22 0.05 89 1008.3
20220524175517 67 315 8.0 16.0 0.00 0.22 0.05 87 1008.4
20220524174517 67 338 10.0 16.0 0.00 0.22 0.05 86 1008.5
20220524173517 68 338 9.0 17.0 0.00 0.22 0.05 84 1008.7
20220524172517 70 338 9.0 15.0 0.00 0.22 0.05 81 1008.8
20220524171517 74 68 6.0 12.0 0.00 0.22 0.05 84 1009.1
20220524170517 75 113 3.0 7.0 0.00 0.22 0.05 89 1009.0
20220524165522 74 135 4.0 9.0 0.00 0.22 0.05 91 1009.0
20220524164517 74 113 6.0 9.0 0.00 0.22 0.05 90 1009.2
20220524163517 73 158 8.0 12.0 0.00 0.22 0.05 91 1009.1
20220524162517 73 135 6.0 11.0 0.00 0.22 0.05 93 1009.0
20220524161517 72 135 7.0 12.0 0.00 0.22 0.05 93 1009.1
20220524160517 71 158 7.0 12.0 0.00 0.22 0.05 94 1009.0
20220524155517 71 135 8.0 13.0 0.00 0.22 0.05 94 1008.9
20220524154517 70 113 6.0 9.0 0.00 0.22 0.05 94 1009.0
20220524153517 70 135 7.0 12.0 0.00 0.22 0.05 94 1009.2
20220524152517 70 113 9.0 12.0 0.00 0.22 0.05 94 1009.2
20220524151522 70 113 7.0 11.0 0.00 0.22 0.05 95 1009.3
20220524150517 69 113 9.0 14.0 0.00 0.22 0.05 95 1009.2
20220524145521 69 135 11.0 15.0 0.00 0.22 0.05 95 1009.3
20220524144516 69 113 10.0 13.0 0.00 0.22 0.05 95 1009.1
20220524143516 69 113 10.0 13.0 0.00 0.22 0.05 95 1009.1
20220524142517 69 113 9.0 14.0 0.00 0.22 0.05 95 1009.1
20220524141516 69 113 7.0 11.0 0.00 0.22 0.05 95 1008.8
20220524140516 68 113 8.0 12.0 0.00 0.22 0.05 95 1008.5
20220524135517 68 113 7.0 10.0 0.00 0.22 0.05 95 1008.5
20220524134517 68 113 9.0 12.0 0.00 0.22 0.05 95 1008.4
20220524133522 68 113 11.0 16.0 0.00 0.22 0.05 95 1008.3
20220524132517 68 90 10.0 15.0 0.00 0.22 0.05 95 1008.4
20220524131517 68 113 10.0 15.0 0.00 0.22 0.05 95 1008.3
20220524130516 68 113 10.0 14.0 0.00 0.22 0.05 95 1008.6
20220524125522 67 113 10.0 14.0 0.00 0.22 0.05 95 1008.6
20220524124516 67 113 10.0 13.0 0.00 0.22 0.05 95 1009.0
20220524123517 67 113 9.0 15.0 0.00 0.22 0.05 95 1009.1
20220524122517 67 113 10.0 14.0 0.00 0.22 0.05 95 1009.3
20220524121517 67 113 10.0 14.0 0.00 0.22 0.05 95 1009.1
20220524120517 67 113 10.0 14.0 0.00 0.22 0.05 95 1009.0
20220524115516 67 113 11.0 17.0 0.00 0.22 0.05 95 1008.8
20220524114517 67 113 9.0 12.0 0.00 0.22 0.05 95 1009.0
20220524113517 67 113 8.0 12.0 0.00 0.22 0.05 95 1009.2
20220524112516 67 113 9.0 12.0 0.00 0.22 0.05 95 1009.3
20220524111517 67 113 9.0 12.0 0.00 0.22 0.05 95 1009.5
20220524110516 67 113 9.0 15.0 0.00 0.22 0.05 95 1009.5
20220524105517 67 113 9.0 14.0 0.00 0.22 0.05 95 1009.8
20220524104516 67 113 9.0 12.0 0.00 0.22 0.05 94 1009.7
20220524103516 67 113 9.0 13.0 0.00 0.22 0.05 94 1009.9
20220524102516 67 90 11.0 15.0 0.00 0.22 0.05 94 1009.7
20220524101521 67 113 9.0 13.0 0.00 0.22 0.05 94 1010.1
20220524100516 67 113 9.0 13.0 0.00 0.22 0.05 94 1010.2
20220524095517 67 113 10.0 13.0 0.00 0.22 0.05 94 1010.1
20220524094517 67 113 7.0 11.0 0.00 0.22 0.05 94 1010.2
20220524093516 66 113 7.0 9.0 0.00 0.22 0.05 94 1010.5
20220524092517 66 113 9.0 12.0 0.00 0.22 0.05 94 1010.5
20220524091521 66 113 9.0 13.0 0.00 0.22 0.05 94 1010.5
20220524090516 66 113 8.0 12.0 0.00 0.22 0.05 94 1010.4
20220524085516 67 113 9.0 13.0 0.00 0.22 0.05 93 1010.7
20220524084516 67 113 8.0 10.0 0.00 0.22 0.05 93 1010.7
20220524083517 67 90 9.0 12.0 0.00 0.22 0.05 93 1010.7
20220524082517 67 90 8.0 12.0 0.00 0.22 0.05 93 1010.8
20220524081517 67 90 10.0 13.0 0.00 0.22 0.05 93 1010.6
20220524080517 67 90 10.0 16.0 0.00 0.22 0.05 94 1010.6
20220524075517 67 90 9.0 14.0 0.00 0.22 0.05 94 1010.8
20220524074516 67 90 7.0 11.0 0.00 0.22 0.05 94 1010.8
20220524073521 67 90 8.0 13.0 0.01 0.22 0.05 93 1010.6
20220524072521 67 68 7.0 12.0 0.04 0.22 0.05 93 1010.3
20220524071516 68 68 8.0 11.0 0.04 0.22 0.05 93 1010.2
20220524070517 68 68 7.0 11.0 0.05 0.22 0.05 93 1010.4
20220524065516 68 68 8.0 12.0 0.05 0.22 0.05 93 1010.7
20220524064517 68 90 8.0 13.0 0.05 0.22 0.05 92 1010.9
20220524063516 69 68 6.0 12.0 0.04 0.21 0.04 92 1011.2
20220524062516 69 90 8.0 11.0 0.01 0.18 0.01 92 1011.5
20220524061522 69 90 9.0 12.0 0.01 0.18 0.01 92 1011.9
20220524060517 69 90 8.0 11.0 0.00 0.17 0.00 92 1011.9
20220524055516 69 90 8.0 14.0 0.00 0.17 0.00 92 1011.9
20220524054517 70 90 9.0 13.0 0.00 0.17 0.00 92 1011.5
20220524053516 70 90 9.0 13.0 0.00 0.17 0.00 92 1011.6
20220524052516 70 113 9.0 13.0 0.00 0.17 0.00 92 1011.5
20220524051516 70 90 10.0 15.0 0.00 0.17 0.00 92 1011.2
20220524050516 70 90 11.0 17.0 0.00 0.17 0.00 92 1011.4
20220524045520 70 90 9.0 12.0 0.00 0.17 0.17 92 1011.4
20220524044515 70 113 9.0 13.0 0.00 0.17 0.17 92 1011.6